sat.trackr.live / text

‹ back to catalog

SHENZHOU-22

NORAD 66645 · 2025-272A

PAYLOAD ACTIVE UNKNOWN

§ Identity

Operator
Country
PRC
Launch date
2025-11-25
Launch site
JSC
Launch vehicle
Mass (kg)
RCS (m²)

Purposes: station

External: N2YO · Heavens-Above · Gunter

§ Orbital elements

Epoch: 2026-05-25T03:02:10.928832Z

Period
92.32 min
Inclination
41.4679°
Eccentricity
0.0011060
Mean motion
15.59799573 rev/d
Perigee alt
380.8 km
Apogee alt
395.7 km
Semi-major
6,766.4 km
B*
1.7567e-4
RAAN
102.2354°
Arg perigee
276.8418°
Mean anomaly
83.1162°
Rev number
28,961

§ Raw data

SHENZHOU-221 66645U 25272A   26145.12651538  .00014225  00000+0  17567-3 0  99962 66645  41.4679 102.2354 0011060 276.8418  83.1162 15.59799573289618

JSON: /api/v1/satellites/66645 · /tle

For live sub-satellite position, see the globe view (requires WebGL).

§ Visibility from observer

Set your observer location to see the next 7 days of passes ≥ 10°. The values pass through the URL so the page stays shareable.

No JS? Fill the form by hand. The geolocation button needs JavaScript.